INSAT 1B R/B(PAM-D), 14524

Orbit data source: Space-Track

INSAT 1B R/B(PAM-D), 14524 is space debris in HEO originally from a launch on Tue, 30 Aug 1983 UTC launched from the Air Force Eastern Test Range (AFETR). Debris objects in space refer to the collection of defunct objects orbiting the Earth. Examples of debris include non-operational satellites, rocket bodies, and fragments generated from explosions, collisions, or faulty payload assembly.

Loading next visibility...
INSAT 1B R/B(PAM-D) details
Identifier
14524, 1983-089C
Orbit
HEO
Last TLE update1 day ago
Origin
Flag of USISRO (US)
ManufacturerThiokol/TE
MissionSpacecraft
Bus & MotorSTAR 48, Unknown motor
Mass2,141 kg wet, 132 kg dry
Launch date (UTC)
1983-08-30 (41 years ago)
Launch vehicleUnknown
Launch site
Air Force Eastern Test Range (AFETR)
Object type
Payload
Rocket body
Debris
Shape & HBRSphere + Cone, 2.3 m
Radar Cross Section2.822 m², Large (>1 m²)

Expand to show TLE details & history

TLE from 1 day ago
0 INSAT 1B R/B(PAM-D)
1 14524U 83089C   24325.34830806  .00004136  00000-0  15031-2 0  9998
2 14524  24.4832   2.2163 5903338 153.9322 254.5690  4.15308274471266
Epoch: 2024-11-20T08:21Z
Definitive object data (Epoch: 2024-11-20T08:21:33.816Z)
Latitude
Longitude176.98064°
Altitude16,291.118 km
Speed3.285 km/s
True Right ascension00h 08m 52s
True Declination0° 00' 00"
Sunlit
Object was in daylight at TLE epoch
Visualization TLE readout
Latitude-22.29621°
Longitude112.12993°
Altitude12,729.381 km
Speed4.165 km/s
Apparent Right ascension19h 44m 05s
Apparent Declination-26° 37' 05"
Sunlit
Object is in daylight
Visualization observer readout
Local Sidereal Time07:24:41
Azimuth341.656° N
Elevation-76.104°
Doppler factor1
Orbital elements
Apogee altitude19,628.111 km
Perigee altitude321.011 km
Semi-major axis16,352.698 km
Eccentricity0.5903338
Inclination24.4832°
RAAN2.2163°
Arg. of periapsis153.9322°
True anomaly206.06454°
Mean anomaly254.569°
Eccentric anomaly229.03026°
Mean motion1.03791 °/min
BSTAR0.0015031
Orbital period346.85 mins
Loading maneuver chart data...
Loading historical data...
Loading historical data...
Loading historical data...
Loading historical data...
Loading historical data...
Loading historical data...
Loading historical data...
Other satellites on launch #89 in the year 1983 (1983-08-30 UTC)

INSAT 1B R/B(PAM-D) Visibility forecast

Observer location: undefined°, undefined

Span
Click to sort rows by Start time (UTC) header in descending order
Start Az.
Max El. time (UTC)
Max El. Az.
Max El.
End time (UTC)
End Az.
216 mins2024-11-21 22:10:31.015Z161.12° S2024-11-22 00:49:31.015Z132.124° SE23.154°2024-11-22 01:46:31.015Z100.58° ESE
104 mins2024-11-22 06:20:31.015Z244.097° WSW2024-11-22 07:54:31.015Z189.222° SSW36.633°2024-11-22 08:04:31.015Z118.541° SE
|